Location: Trout Lake
(45.9980°N, 121.5270°W)
Time: 20:53:40
(UTC-08:00)

S3M - Pass Details

Date: 06 December 2023
Orbit: 949 x 1003 km, 83.0° (Epoch: 22 February)

Event Time Altitude Azimuth Distance (km) Brightness Sun altitude
Rises 18:38:43 0° 355° (N) 3,640 7.0 -23.0°
Reaches altitude 10° 18:41:18 10° 1° (N) 2,695 6.2 -23.5°
Enters shadow 18:46:04 45° 41° (NE) 1,292 4.3 -24.3°
